Temperature
16 16 16 16 16 16 16 16 16 16 16 16 16 16 16 16 16 16 17 17 17 17 17 17 17 17 17 17 17 17 17 17 17 17 17 16 16 16 16 16 16 16 16
16 16 16 15 15 15 15 15 15 15 16 16 16 16 16 16 16 16 16 16 17 17 17 17 17 17 17 17 17 17 17 17 17 17 17 16 16 16 16 16 16 16 16
16 15 15 15 15 15 15 15 15 15 15 15 15 15 15 15 16 16 16 16 16 16 16 17 17 17 17 17 17 17 17 17 17 17 17 17 16 16 16 16 16 16 16
15 15 15 14 14 14 14 14 14 14 14 15 15 15 15 15 15 15 16 16 16 16 16 16 16 16 16 16 16 16 16 16 16 16 16 16 16 16 16 16 16 16 16
15 14 14 14 14 14 14 14 14 14 14 14 14 14 15 15 15 15 15 16 16 16 16 16 16 16 16 16 16 16 16 16 16 16 16 16 16 16 16 16 16 16 16
14 14 14 14 13 13 13 13 13 13 14 14 14 14 14 14 15 15 15 15 16 16 16 16 16 16 16 16 16 16 16 16 16 16 16 16 16 16 16 16 16 16 16
14 14 13 13 13 13 13 13 13 13 13 14 14 14 14 14 14 14 15 15 15 15 15 15 15 15 15 15 15 16 16 16 16 16 16 16 16 16 16 16 16 16 16
14 13 13 13 13 13 13 13 13 13 13 13 13 14 14 14 14 14 14 15 15 15 15 15 15 15 15 15 15 15 16 16 16 16 16 16 16 16 16 16 16 16 16
14 13 13 13 13 13 12 13 13 13 13 13 13 13 13 13 14 13 14 14 14 14 15 15 15 15 15 15 15 15 15 15 15 16 16 16 16 16 16 16 16 16 16
13 13 13 13 12 12 12 12 12 12 12 12 12 12 12 12 13 13 13 13 14 14 14 14 14 15 15 15 15 15 15 15 15 15 15 15 16 16 16 16 16 16 16
13 13 13 13 12 12 12 12 12 12 12 12 12 12 12 12 12 12 13 13 13 13 14 14 14 14 14 15 15 15 15 15 15 15 15 15 15 15 15 16 16 16 16
13 13 13 13 12 12 12 12 12 12 11 11 11 11 11 11 11 12 12 12 13 13 13 13 13 14 14 14 14 14 15 15 15 15 15 15 15 15 15 15 15 15 16
14 13 13 13 12 12 12 12 12 11 11 11 11 11 11 11 11 11 11 11 12 12 13 13 13 13 13 13 14 14 14 14 14 14 14 14 15 15 15 15 15 15 15
13 13 13 13 12 12 12 12 11 11 11 11 11 11 11 11 11 11 11 11 11 11 12 12 12 12 12 13 13 13 13 14 14 14 14 14 14 14 15 15 15 15 15
13 13 13 13 12 12 12 12 12 11 11 11 11 11 11 11 10 10 10 10 10 10 11 11 12 12 12 12 12 12 13 13 13 13 13 14 14 14 14 14 14 15 15
14 13 13 13 13 12 12 12 12 11 11 11 11 11 11 11 10 10 10 10 10 10 10 10 11 11 11 11 12 12 12 12 12 13 13 13 13 14 14 14 14 14 14
14 14 14 13 13 13 12 12 12 12 11 11 11 11 11 10 10 10 10 10 10 10 10 10 10 11 11 11 11 11 11 12 12 12 12 13 13 13 13 13 14 14 14
15 14 14 14 13 13 13 12 12 12 12 11 11 11 11 10 10 10 10 10 10 10 9 10 10 10 10 11 11 11 11 11 12 12 12 12 13 13 13 13 13 13 14
15 15 14 14 14 13 13 13 12 12 12 11 11 11 11 10 10 10 10 10 10 10 9 9 10 10 10 10 10 10 11 11 11 11 11 12 12 12 12 13 13 13 13
15 15 15 14 14 14 13 13 12 12 12 12 11 11 11 11 10 10 10 10 10 10 9 9 9 10 10 10 10 10 10 10 11 11 11 11 11 12 12 12 12 13 13
16 15 15 15 14 14 13 13 13 12 12 12 12 11 11 11 10 10 10 10 10 9 9 9 9 9 10 10 9 9 10 10 10 10 11 11 11 11 11 12 12 12 12
16 16 15 15 15 14 14 13 13 13 12 12 12 11 11 11 11 10 10 10 10 9 9 9 9 9 9 9 9 9 9 9 9 10 10 11 11 11 11 11 12 12 12
16 16 16 15 15 15 14 13 13 13 12 12 12 11 11 11 11 10 10 10 10 9 9 9 9 9 9 9 9 9 9 9 9 9 9 10 10 11 11 11 11 12 12
16 16 16 15 15 15 14 14 13 13 12 12 12 12 11 11 11 10 10 10 10 10 9 9 9 9 9 9 9 8 8 8 9 9 9 9 10 10 11 11 11 12 12
16 16 16 15 15 15 14 14 13 13 13 13 12 12 11 11 11 10 10 10 10 10 10 9 9 9 9 9 8 8 8 8 8 9 9 8 9 10 10 11 11 11 12
16 16 15 15 15 15 14 14 13 13 13 13 13 12 12 11 11 11 10 10 10 10 10 9 9 9 9 9 8 8 8 8 8 8 9 8 9 9 9 10 10 11 11
Wind_Speed
3 4 4 5 5 4 4 3 3 3 3 3 2 0 1 1 2 3 4 7 9 12 14 15 17 17 17 17 17 17 16 16 15 15 15 15 15 14 14 13 12 12 12
5 4 4 4 5 5 4 4 3 2 2 2 2 1 1 1 2 3 5 6 7 10 13 16 16 17 17 17 17 18 18 17 17 17 16 16 16 16 15 14 14 13 13
6 5 3 3 4 5 5 5 4 4 2 2 2 2 1 2 2 4 5 6 7 9 12 14 16 16 16 17 17 18 18 19 18 18 18 18 18 17 17 16 15 15 14
6 6 4 3 4 5 5 3 3 2 3 3 2 2 2 2 3 4 5 6 6 7 9 12 14 16 16 16 17 17 19 20 20 20 20 19 19 19 18 18 17 17 16
6 6 4 4 5 5 4 3 3 2 2 3 2 2 2 2 3 3 3 4 6 6 6 8 11 14 16 16 17 18 19 20 21 21 21 21 20 20 20 20 19 18 18
6 6 5 4 4 4 3 3 3 3 2 2 2 2 3 3 3 3 3 3 3 4 4 5 6 9 13 16 17 18 19 19 21 22 22 22 22 22 22 21 21 20 20
5 5 4 3 3 3 3 2 2 3 4 3 2 3 3 3 4 5 4 4 4 3 2 3 4 6 7 11 15 18 19 20 21 22 23 23 24 24 24 23 23 22 22
5 4 4 3 2 3 3 3 3 2 3 4 2 2 3 4 4 5 5 6 6 6 5 4 2 3 5 5 8 12 15 18 20 21 22 24 25 25 25 25 25 24 24
4 4 4 3 3 2 2 2 2 2 2 3 3 2 2 0 2 3 4 5 6 6 5 6 6 4 3 3 5 7 10 13 16 18 20 21 23 25 26 27 27 26 26
3 5 5 4 3 2 2 1 2 1 2 2 2 2 1 1 0 2 3 4 5 6 6 5 6 7 6 4 4 5 7 8 10 14 17 19 21 22 25 26 27 27 27
2 4 6 5 3 2 2 2 2 1 1 1 1 1 2 2 1 1 2 4 4 4 5 4 5 6 7 6 5 5 6 6 6 8 12 15 18 20 22 25 26 27 28
1 2 5 5 4 3 2 2 2 2 1 1 1 1 1 1 1 1 1 2 3 3 4 3 3 5 7 7 7 7 6 5 4 5 6 9 13 17 19 21 24 26 28
2 3 4 4 3 3 3 3 2 2 2 2 2 1 1 1 1 2 1 1 2 2 3 2 3 4 6 7 7 8 7 6 4 4 4 5 7 10 15 18 20 21 24
4 3 4 4 4 4 4 3 2 2 2 2 3 2 2 2 2 3 2 2 1 2 2 3 2 3 5 7 8 8 6 7 6 5 5 5 6 7 9 12 16 18 19
4 4 5 4 4 4 4 3 3 3 3 3 3 3 3 2 3 3 3 3 2 2 3 3 2 2 6 7 8 7 6 7 8 7 6 7 7 8 9 10 11 13 15
4 5 5 5 4 4 4 3 3 3 3 3 3 4 4 3 3 3 4 4 4 4 4 3 3 4 5 7 8 7 7 8 8 8 8 8 9 10 10 10 11 13 14
6 6 6 5 5 5 4 4 4 4 4 4 4 4 6 4 4 3 3 4 5 5 6 5 3 3 4 5 6 7 7 7 7 9 10 10 11 12 12 13 13 14 15
7 7 6 6 6 5 5 5 5 5 5 6 6 5 6 4 5 4 4 5 5 6 6 7 4 3 4 5 5 5 6 6 7 9 11 11 12 12 13 14 15 16 16
7 7 6 7 7 6 6 6 6 6 6 7 7 7 7 5 6 5 5 6 5 5 6 6 5 3 4 4 4 4 5 5 6 8 9 9 9 10 11 13 15 16 17
8 8 8 8 8 7 7 7 7 7 7 7 7 7 7 7 8 8 6 7 6 6 5 6 6 5 5 4 4 4 5 3 4 6 7 8 8 9 10 11 13 15 17
9 8 8 8 8 7 7 8 8 8 8 8 8 8 8 10 11 9 7 7 6 6 5 6 6 5 5 4 5 3 5 5 5 4 4 4 5 6 8 10 12 14 16
9 8 9 9 9 8 11 13 10 8 8 9 9 9 8 10 11 12 13 12 10 9 8 7 7 7 9 7 5 5 4 4 5 3 3 5 4 7 8 10 13 15 16
9 9 10 9 10 11 14 14 14 10 9 10 10 9 8 8 9 8 9 10 11 13 14 11 11 11 10 8 6 6 6 7 7 5 3 7 6 8 9 12 17 18 18
8 9 10 10 10 12 15 15 15 11 10 11 11 11 11 11 10 9 8 9 9 10 11 11 11 12 11 10 8 8 8 7 8 7 5 6 7 8 9 11 17 20 20
9 9 8 10 11 13 15 16 14 8 10 12 12 12 12 12 14 13 10 10 11 10 11 14 15 15 15 14 10 6 6 6 8 7 6 6 6 7 8 9 12 15 17
10 9 10 10 12 13 14 16 14 8 10 11 10 11 14 16 15 14 11 10 12 12 9 7 8 9 10 11 12 11 10 9 9 7 6 6 5 4 5 4 4 5 7
Wind_Direction
89 73 57 52 49 50 54 46 39 30 27 22 17 41 196 239 263 244 247 255 243 225 216 206 201 197 195 196 196 198 197 197 195 193 191 188 184 183 182 181 178 176 174
100 83 61 48 42 44 55 61 56 42 13 7 359 339 294 268 265 263 259 265 261 239 225 214 210 206 202 203 204 203 203 203 201 199 197 196 192 190 189 189 186 183 182
101 94 76 53 38 45 60 63 53 46 30 13 358 346 346 319 296 281 271 265 265 254 238 226 219 214 212 211 212 211 209 207 206 203 202 201 199 197 196 194 193 191 190
110 101 87 63 48 56 60 63 45 41 24 13 354 344 347 333 312 293 274 263 258 256 247 234 224 220 219 218 220 220 218 213 210 208 207 206 205 202 201 200 199 198 197
111 102 90 72 64 62 51 57 51 46 22 0 340 359 359 347 335 330 304 274 258 254 252 246 236 230 229 228 228 225 224 220 216 213 211 210 210 208 206 205 203 203 203
121 107 93 77 72 67 52 50 57 43 29 353 350 6 3 2 11 15 357 338 307 276 259 254 248 245 239 234 232 232 229 226 222 218 216 214 214 212 210 208 207 207 207
139 121 106 88 77 74 61 52 64 44 25 3 27 7 357 10 28 28 18 23 18 3 331 269 253 250 251 244 237 235 233 232 229 225 220 218 216 214 212 211 210 210 210
157 143 129 116 103 88 63 46 52 59 28 25 51 58 13 0 1 12 17 30 27 27 25 13 329 272 258 252 247 243 239 235 233 229 226 223 220 217 215 214 213 213 212
180 163 154 142 128 111 97 68 59 78 55 26 38 92 98 15 320 337 7 19 18 27 20 18 19 4 334 280 266 262 258 246 237 233 231 229 225 222 220 217 216 215 214
193 184 171 159 147 131 124 105 93 85 96 49 27 40 76 149 80 338 336 355 4 19 11 12 13 11 8 353 318 298 289 270 253 242 236 234 231 228 226 223 222 220 218
210 196 179 168 165 159 155 142 126 116 115 120 77 57 65 57 69 108 324 335 344 346 354 357 5 8 10 7 352 336 322 303 286 262 245 238 234 232 232 230 229 227 224
237 197 180 177 179 178 184 185 169 158 157 147 147 149 145 138 146 139 253 311 320 316 327 336 357 0 7 8 360 354 347 334 313 288 264 250 242 237 235 236 235 233 230
206 203 180 182 189 199 202 193 188 193 186 186 192 199 200 208 187 174 190 259 296 307 319 318 323 347 3 2 356 358 354 351 336 314 292 274 264 252 242 238 238 238 235
204 197 191 197 206 209 208 198 204 214 204 211 216 208 215 224 205 195 190 189 283 304 301 296 313 327 346 345 343 344 340 336 327 317 304 290 276 267 258 249 243 242 241
204 197 199 204 213 213 211 200 216 228 216 226 230 226 227 231 217 217 209 196 199 263 287 282 292 304 326 325 327 328 321 319 317 307 294 282 277 272 267 260 254 252 248
202 193 204 210 217 221 216 210 227 232 228 237 229 231 237 239 231 222 216 214 211 217 249 260 260 283 300 306 313 316 310 311 306 299 289 280 274 270 268 266 262 259 256
202 204 210 214 223 230 225 220 235 240 241 250 241 233 244 238 238 235 222 218 217 213 243 267 258 271 279 287 304 309 304 300 296 292 289 283 277 271 266 264 264 261 257
209 210 211 217 228 232 228 226 239 241 240 250 251 242 250 244 239 239 230 230 229 220 230 262 271 267 262 275 285 293 299 299 292 292 292 287 280 273 267 263 262 260 258
211 212 211 220 229 233 233 232 233 241 243 247 248 244 249 242 247 244 237 241 242 237 226 244 265 261 266 273 283 286 288 290 292 293 295 291 288 284 277 269 264 260 258
210 214 217 223 229 233 235 237 236 240 245 247 244 243 245 239 244 246 245 243 243 244 238 242 259 265 265 267 262 272 285 280 289 295 287 283 286 292 289 283 274 265 259
217 218 221 228 231 232 235 232 234 238 242 249 249 246 245 244 243 240 241 242 237 242 246 248 258 263 264 260 257 255 271 283 281 267 277 278 284 289 288 284 280 273 266
219 218 222 228 232 235 234 230 226 234 239 243 251 253 253 255 255 252 249 245 233 235 243 246 254 257 263 258 255 251 258 273 282 251 252 279 279 281 278 275 271 271 270
219 222 228 229 236 239 238 239 235 231 237 241 244 251 256 253 245 251 257 260 252 240 233 237 250 255 260 253 244 251 244 245 256 259 259 279 272 274 272 271 268 268 268
218 226 231 232 237 244 240 239 239 235 240 244 243 243 246 253 249 240 249 258 260 256 246 240 242 249 251 252 242 249 258 260 262 259 237 264 273 271 276 272 268 263 263
224 226 230 230 235 245 241 238 235 235 241 247 246 242 240 247 247 234 238 251 262 266 258 244 239 245 248 247 239 242 245 249 265 264 219 234 265 272 274 271 267 262 260
231 232 237 235 236 245 244 238 229 230 241 249 250 245 237 237 241 232 230 237 250 259 260 262 253 254 255 255 242 233 239 246 256 265 230 216 249 260 277 261 264 272 271
Height
1558 1557 1557 1556 1556 1556 1556 1556 1557 1557 1558 1558 1559 1560 1561 1561 1562 1563 1564 1566 1567 1568 1569 1571 1572 1574 1576 1578 1580 1582 1584 1586 1588 1590 1591 1593 1595 1596 1598 1599 1601 1602 1603
1557 1556 1556 1555 1555 1555 1555 1555 1555 1555 1556 1556 1557 1558 1559 1559 1560 1561 1562 1563 1564 1565 1567 1569 1570 1572 1574 1576 1578 1580 1582 1584 1586 1588 1590 1592 1594 1596 1597 1599 1600 1602 1603
1556 1555 1554 1554 1553 1553 1553 1553 1554 1554 1554 1555 1555 1556 1556 1557 1558 1558 1559 1560 1561 1562 1564 1566 1567 1569 1571 1573 1575 1578 1580 1582 1584 1587 1589 1591 1593 1594 1596 1598 1600 1601 1603
1555 1554 1554 1553 1552 1552 1552 1552 1552 1552 1553 1553 1553 1554 1554 1555 1555 1556 1556 1557 1558 1560 1561 1562 1564 1566 1568 1570 1572 1575 1577 1579 1582 1584 1586 1589 1591 1593 1595 1597 1598 1600 1602
1555 1554 1553 1552 1552 1552 1551 1551 1551 1551 1551 1551 1552 1552 1552 1553 1553 1553 1554 1555 1556 1557 1558 1559 1561 1563 1564 1566 1568 1571 1573 1576 1579 1581 1583 1586 1588 1590 1592 1594 1596 1598 1600
1555 1554 1553 1552 1552 1551 1551 1551 1550 1550 1550 1550 1550 1551 1551 1551 1551 1551 1551 1552 1553 1554 1555 1557 1558 1560 1561 1563 1565 1567 1569 1572 1574 1577 1580 1582 1585 1587 1589 1592 1594 1596 1598
1555 1554 1553 1552 1552 1551 1551 1550 1550 1549 1549 1549 1549 1550 1550 1550 1550 1550 1550 1550 1551 1552 1553 1554 1555 1557 1558 1560 1561 1563 1565 1567 1570 1572 1575 1578 1580 1583 1586 1588 1591 1593 1595
1555 1554 1553 1553 1552 1551 1551 1550 1550 1549 1548 1548 1549 1549 1549 1551 1550 1550 1550 1549 1550 1550 1551 1552 1553 1555 1556 1557 1558 1560 1561 1563 1565 1567 1570 1573 1576 1578 1581 1584 1587 1589 1592
1554 1554 1553 1553 1552 1551 1551 1550 1549 1549 1548 1548 1548 1549 1549 1549 1550 1550 1549 1549 1549 1550 1550 1551 1552 1552 1553 1554 1555 1556 1558 1559 1561 1562 1565 1567 1570 1573 1576 1579 1582 1585 1587
1553 1553 1553 1553 1552 1552 1551 1550 1549 1548 1548 1548 1548 1548 1549 1549 1549 1549 1550 1549 1549 1549 1549 1550 1550 1551 1551 1552 1552 1553 1554 1555 1556 1558 1559 1562 1564 1567 1570 1573 1576 1579 1582
1552 1552 1552 1552 1552 1551 1550 1549 1549 1548 1548 1547 1547 1547 1547 1547 1548 1548 1548 1548 1549 1548 1548 1548 1549 1549 1549 1549 1550 1550 1551 1552 1552 1553 1555 1557 1558 1561 1564 1567 1570 1573 1576
1551 1551 1551 1551 1551 1550 1550 1549 1548 1548 1547 1547 1547 1546 1546 1546 1546 1547 1546 1546 1546 1547 1547 1547 1547 1547 1547 1547 1547 1547 1548 1548 1549 1550 1551 1552 1553 1555 1558 1560 1563 1566 1569
1549 1550 1550 1550 1550 1549 1549 1548 1548 1547 1546 1546 1546 1545 1545 1545 1545 1545 1545 1544 1544 1544 1544 1545 1545 1544 1544 1544 1544 1544 1545 1545 1545 1546 1547 1548 1548 1550 1552 1554 1556 1559 1562
1548 1548 1548 1548 1548 1548 1547 1547 1547 1546 1545 1545 1544 1544 1544 1544 1544 1543 1543 1543 1541 1541 1541 1541 1542 1541 1541 1541 1541 1541 1541 1541 1542 1542 1543 1544 1544 1545 1546 1548 1550 1552 1555
1545 1546 1546 1546 1546 1546 1545 1545 1545 1544 1544 1543 1543 1543 1542 1542 1542 1541 1541 1541 1541 1539 1538 1538 1538 1538 1538 1538 1537 1537 1537 1538 1538 1538 1539 1539 1540 1540 1541 1542 1544 1546 1548
1543 1543 1544 1544 1544 1544 1543 1543 1543 1542 1542 1541 1541 1540 1540 1540 1539 1539 1538 1538 1537 1537 1535 1534 1535 1535 1534 1534 1534 1533 1533 1533 1533 1534 1534 1535 1536 1536 1536 1537 1538 1539 1541
1541 1541 1541 1541 1541 1541 1541 1541 1540 1540 1539 1539 1538 1538 1537 1537 1536 1536 1535 1535 1534 1533 1532 1531 1531 1530 1530 1530 1529 1529 1528 1528 1529 1529 1530 1530 1531 1531 1531 1532 1532 1533 1534
1538 1539 1539 1539 1539 1539 1538 1538 1537 1537 1536 1536 1535 1535 1534 1534 1533 1533 1532 1531 1530 1530 1528 1527 1526 1526 1526 1525 1524 1524 1524 1523 1523 1524 1524 1524 1525 1525 1525 1526 1526 1527 1527
1536 1536 1536 1536 1536 1536 1535 1535 1534 1534 1533 1532 1532 1531 1531 1530 1529 1529 1528 1527 1526 1525 1524 1523 1522 1521 1521 1521 1520 1519 1519 1518 1518 1518 1518 1518 1519 1519 1519 1519 1520 1520 1521
1532 1533 1533 1533 1533 1533 1532 1531 1531 1530 1529 1528 1528 1527 1527 1526 1525 1524 1523 1522 1522 1521 1520 1518 1517 1517 1516 1516 1515 1514 1513 1513 1512 1512 1512 1512 1512 1512 1513 1513 1513 1513 1514
1529 1529 1529 1529 1529 1529 1528 1528 1527 1526 1525 1524 1524 1523 1522 1521 1520 1519 1518 1517 1517 1516 1515 1514 1513 1512 1511 1511 1510 1509 1508 1507 1506 1506 1506 1506 1506 1506 1506 1506 1506 1506 1507
1525 1525 1525 1525 1525 1524 1524 1523 1523 1521 1521 1520 1519 1518 1517 1516 1515 1514 1513 1512 1511 1510 1509 1509 1507 1506 1506 1506 1505 1504 1503 1501 1500 1501 1500 1500 1500 1499 1499 1500 1500 1500 1500
1521 1521 1521 1521 1520 1520 1519 1519 1518 1517 1515 1514 1514 1513 1512 1511 1510 1509 1508 1507 1506 1505 1504 1504 1502 1501 1501 1500 1500 1498 1497 1496 1495 1495 1494 1491 1492 1492 1492 1492 1492 1492 1492
1516 1516 1516 1516 1515 1515 1514 1513 1512 1511 1510 1509 1508 1507 1506 1505 1504 1503 1502 1501 1500 1500 1499 1498 1496 1495 1495 1494 1494 1493 1491 1489 1488 1488 1488 1485 1484 1484 1484 1484 1484 1484 1485
1510 1510 1510 1509 1509 1508 1508 1507 1506 1505 1503 1502 1502 1501 1500 1499 1498 1498 1496 1495 1494 1494 1493 1492 1491 1490 1489 1488 1487 1486 1485 1483 1481 1480 1481 1479 1477 1477 1475 1475 1476 1476 1477
1503 1503 1503 1502 1502 1501 1501 1501 1500 1498 1496 1495 1494 1494 1493 1492 1492 1491 1490 1488 1487 1487 1487 1486 1485 1483 1482 1481 1481 1479 1478 1477 1475 1473 1473 1473 1471 1471 1468 1468 1469 1469 1469